Weather History for Marion, IN

Change the Weather History Date:

Thursday, February 7, 2013

  Actual Average (KMIE) Record (KMIE)
Temperature  
Mean Temperature 39 °F 28 °F  
Max Temperature 62 °F 36 °F 60 °F (1965)
Min Temperature 29 °F 20 °F -9 °F (1977)
Degree Days  
Heating Degree Days 26 37  
Month to date heating degree days 264  
Since 1 July heating degree days 3657  
Cooling Degree Days 0 0  
Month to date cooling degree days 0  
Year to date cooling degree days 0  
Moisture  
Dew Point 30 °F    
Average Humidity 74    
Maximum Humidity 96    
Minimum Humidity 53    
Precipitation  
Precipitation 0.03 in 0.08 in 0.71 in (2005)
Month to date precipitation 0.56  
Year to date precipitation 2.79  
Sea Level Pressure  
Sea Level Pressure 30.00 in    
Wind  
Wind Speed 7 mph (SE)    
Max Wind Speed 14 mph    
Max Gust Speed 16 mph    
Visibility 7 miles    
Events Rain    
T = Trace of Precipitation, MM = Missing Value Source: NWS Daily Summary

Daily Weather History Graph

Daily Weather History Graph

Search for Another Location

Airport:

Trip Planner

Search our weather history database for the weather conditions in past years. The results will help you decide how hot, cold, wet, or windy it might be!

Date:

Astronomy

Feb. 07, 2013 Rise Set
Actual Time 7:45 AM EST 6:08 PM EST
Civil Twilight 7:17 AM EST 6:37 PM EST
Nautical Twilight 6:44 AM EST 7:09 PM EST
Astronomical Twilight 6:13 AM EST 7:41 PM EST
Moon 5:24 AM EST (2/7) 3:32 PM EST (2/7)
Length of Visible Light 11h 19m
Length of Day
10h 22m
Waning Crescent, 9% of the Moon is Illuminated
Feb 7
Waning Crescent
Feb 10
New
Feb 17
First Quarter
Feb 25
Full
Mar 4
Last Quarter

Hourly Weather History & Observations

Time (EST) Temp. Windchill Dew Point Humidity Pressure Visibility Wind Dir Wind Speed Gust Speed Precip Events Conditions
12:15 AM 30.2 °F 24.3 °F 24.6 °F 80% 30.18 in 7.0 mi SSE 5.8 mph - N/A   Mostly Cloudy
12:35 AM 30.2 °F 24.3 °F 24.8 °F 80% 30.19 in 7.0 mi SSE 5.8 mph - N/A   Scattered Clouds
12:55 AM 30.2 °F 24.3 °F 24.8 °F 80% 30.19 in 7.0 mi SE 5.8 mph - N/A   Clear
1:35 AM 30.2 °F 24.3 °F 25.2 °F 82% 30.17 in 7.0 mi ESE 5.8 mph - N/A   Mostly Cloudy
1:55 AM 30.4 °F 25.6 °F 25.2 °F 81% 30.17 in 7.0 mi ESE 4.6 mph - N/A   Mostly Cloudy
2:15 AM 30.2 °F - 25.2 °F 82% 30.18 in 7.0 mi Calm Calm - N/A   Scattered Clouds
2:35 AM 30.0 °F 25.2 °F 25.2 °F 82% 30.17 in 7.0 mi ESE 4.6 mph - N/A   Scattered Clouds
2:55 AM 30.0 °F 25.2 °F 25.0 °F 82% 30.16 in 7.0 mi East 4.6 mph - N/A   Scattered Clouds
3:15 AM 30.0 °F 23.2 °F 24.8 °F 81% 30.15 in 7.0 mi ESE 6.9 mph - N/A   Scattered Clouds
3:35 AM 30.2 °F 24.3 °F 24.8 °F 80% 30.15 in 7.0 mi ESE 5.8 mph - N/A   Scattered Clouds
3:55 AM 30.0 °F 23.2 °F 25.0 °F 82% 30.14 in 7.0 mi SE 6.9 mph - N/A   Clear
4:15 AM 29.8 °F 21.5 °F 25.2 °F 83% 30.14 in 7.0 mi SE 9.2 mph - N/A   Clear
4:35 AM 30.2 °F 21.9 °F 25.2 °F 82% 30.13 in 7.0 mi SE 9.2 mph - N/A   Clear
4:55 AM 30.2 °F 21.3 °F 25.2 °F 82% 30.12 in 7.0 mi SE 10.4 mph 16.1 mph N/A   Clear
5:15 AM 30.4 °F 22.2 °F 25.3 °F 82% 30.12 in 5.0 mi SE 9.2 mph - N/A   Haze
5:35 AM 30.6 °F 23.8 °F 25.5 °F 82% 30.14 in 5.0 mi SE 6.9 mph - N/A   Haze
5:55 AM 30.6 °F 23.8 °F 25.7 °F 82% 30.14 in 5.0 mi ESE 6.9 mph - N/A   Clear
6:15 AM 30.6 °F 25.8 °F 25.7 °F 82% 30.14 in 7.0 mi ESE 4.6 mph - N/A   Clear
6:35 AM 30.6 °F 23.8 °F 25.7 °F 82% 30.13 in 7.0 mi ESE 6.9 mph - N/A   Clear
6:55 AM 30.6 °F 24.7 °F 25.7 °F 82% 30.13 in 7.0 mi East 5.8 mph - N/A   Clear
7:15 AM 30.7 °F 22.6 °F 25.7 °F 82% 30.11 in 7.0 mi SE 9.2 mph - N/A   Clear
7:35 AM 30.9 °F 25.2 °F 25.9 °F 82% 30.12 in 7.0 mi East 5.8 mph - N/A   Clear
7:55 AM 30.7 °F 24.1 °F 25.7 °F 82% 30.11 in 5.0 mi ESE 6.9 mph - N/A   Clear
8:15 AM 30.6 °F 21.8 °F 25.9 °F 83% 30.10 in 5.0 mi SE 10.4 mph - N/A   Haze
8:35 AM 31.1 °F 23.7 °F 26.4 °F 83% 30.10 in 5.0 mi ESE 8.1 mph - N/A   Haze
8:55 AM 31.6 °F 22.6 °F 26.4 °F 81% 30.09 in 5.0 mi ESE 11.5 mph - N/A   Haze
9:15 AM 32.0 °F 24.2 °F 26.4 °F 80% 30.09 in 7.0 mi ESE 9.2 mph - N/A   Clear
9:35 AM 32.4 °F 25.3 °F 26.8 °F 80% 30.09 in 7.0 mi ESE 8.1 mph - N/A   Clear
9:55 AM 33.4 °F 27.3 °F 27.3 °F 78% 30.09 in 7.0 mi ESE 6.9 mph - N/A   Clear
10:15 AM 34.5 °F 27.3 °F 27.3 °F 75% 30.09 in 7.0 mi SE 9.2 mph - N/A   Clear
10:35 AM 35.6 °F 29.9 °F 27.9 °F 73% 30.09 in 7.0 mi SE 6.9 mph - N/A   Clear
10:55 AM 36.5 °F 30.3 °F 28.4 °F 72% 30.08 in 7.0 mi ESE 8.1 mph - N/A   Clear
11:15 AM 37.0 °F 30.4 °F 29.3 °F 74% 30.06 in 7.0 mi SE 9.2 mph - N/A   Clear
11:35 AM 38.1 °F 31.7 °F 29.8 °F 72% 30.06 in 7.0 mi ESE 9.2 mph - N/A   Clear
11:55 AM 39.0 °F 33.4 °F 30.0 °F 70% 30.06 in 10.0 mi ESE 8.1 mph - N/A   Clear
12:15 PM 39.7 °F 33.7 °F 30.6 °F 70% 30.04 in 7.0 mi SE 9.2 mph - N/A   Clear
12:35 PM 40.5 °F 35.1 °F 30.9 °F 69% 30.02 in 7.0 mi SE 8.1 mph - N/A   Clear
12:55 PM 41.9 °F 38.2 °F 31.6 °F 67% 30.01 in 10.0 mi ESE 5.8 mph - N/A   Clear
1:15 PM 43.2 °F 39.0 °F 31.6 °F 64% 29.99 in 7.0 mi SE 6.9 mph - N/A   Clear
1:35 PM 44.2 °F 40.3 °F 31.8 °F 62% 29.99 in 10.0 mi SE 6.9 mph - N/A   Clear
1:55 PM 45.3 °F 41.6 °F 32.4 °F 61% 29.98 in 10.0 mi SE 6.9 mph - N/A   Clear
2:15 PM 45.9 °F 42.3 °F 32.5 °F 60% 29.96 in 10.0 mi ESE 6.9 mph - N/A   Clear
2:35 PM 46.4 °F 43.5 °F 32.9 °F 59% 29.94 in 7.0 mi SE 5.8 mph - N/A   Clear
2:55 PM 47.1 °F - 33.4 °F 59% 29.93 in 7.0 mi SE 6.9 mph - N/A   Clear
3:15 PM 47.5 °F - 33.6 °F 59% 29.92 in 10.0 mi SE 8.1 mph - N/A   Clear
3:35 PM 48.2 °F - 34.5 °F 59% 29.92 in 7.0 mi SE 6.9 mph - N/A   Clear
3:55 PM 49.1 °F - 34.7 °F 58% 29.91 in 7.0 mi SE 9.2 mph - N/A   Clear
4:15 PM 49.3 °F - 33.6 °F 55% 29.90 in 10.0 mi SSE 6.9 mph - N/A   Clear
4:35 PM 49.6 °F - 33.3 °F 53% 29.89 in 7.0 mi SSE 8.1 mph - N/A   Clear
4:55 PM 49.3 °F - 32.7 °F 53% 29.89 in 10.0 mi SSE 6.9 mph - N/A   Clear
5:15 PM 48.6 °F - 32.2 °F 53% 29.88 in 10.0 mi SE 6.9 mph - N/A   Clear
5:35 PM 46.8 °F - 32.5 °F 58% 29.87 in 10.0 mi SE 6.9 mph - N/A   Clear
5:55 PM 45.0 °F 41.2 °F 32.4 °F 61% 29.87 in 7.0 mi SSE 6.9 mph - N/A   Clear
6:15 PM 44.2 °F 40.3 °F 31.8 °F 62% 29.86 in 5.0 mi SE 6.9 mph - N/A   Haze
6:35 PM 42.8 °F 38.0 °F 31.3 °F 64% 29.85 in 10.0 mi SE 8.1 mph - N/A   Scattered Clouds
6:55 PM 42.3 °F 37.9 °F 31.5 °F 66% 29.84 in 10.0 mi SE 6.9 mph - N/A   Scattered Clouds
7:15 PM 42.8 °F 38.0 °F 31.8 °F 65% 29.84 in 10.0 mi SE 8.1 mph - N/A   Mostly Cloudy
7:35 PM 43.2 °F 38.4 °F 31.8 °F 64% 29.83 in 7.0 mi SE 8.1 mph - N/A   Overcast
7:55 PM 43.0 °F 37.7 °F 32.0 °F 65% 29.82 in 7.0 mi SE 9.2 mph - N/A   Mostly Cloudy
8:15 PM 42.8 °F 37.5 °F 32.0 °F 66% 29.81 in 10.0 mi SE 9.2 mph - N/A   Scattered Clouds
8:35 PM 42.4 °F 36.5 °F 32.0 °F 67% 29.79 in 10.0 mi SSE 10.4 mph - N/A   Mostly Cloudy
8:55 PM 41.7 °F 36.7 °F 32.2 °F 69% 29.79 in 7.0 mi SSE 8.1 mph - N/A   Mostly Cloudy
9:15 PM 41.0 °F 37.1 °F 32.2 °F 71% 29.79 in 10.0 mi South 5.8 mph - N/A   Overcast
9:35 PM 40.5 °F 35.8 °F 32.7 °F 74% 29.81 in 7.0 mi WSW 6.9 mph - N/A Rain Light Rain
9:55 PM 38.7 °F 35.2 °F 33.4 °F 81% 29.81 in 5.0 mi WSW 4.6 mph - N/A Rain Light Rain
10:15 PM 38.5 °F 32.7 °F 34.2 °F 84% 29.82 in 5.0 mi WSW 8.1 mph - N/A Rain Light Rain
10:35 PM 38.3 °F 33.2 °F 34.9 °F 87% 29.81 in 5.0 mi WSW 6.9 mph - 0.02 in Rain Light Rain
10:55 PM 39.4 °F 36.1 °F 36.9 °F 91% 29.79 in 4.0 mi WSW 4.6 mph - 0.03 in Rain Light Rain
11:15 PM 38.7 °F 34.3 °F 36.7 °F 93% 29.79 in 3.0 mi WSW 5.8 mph - N/A Rain Light Rain
11:35 PM 38.3 °F 33.9 °F 36.7 °F 94% 29.79 in 2.0 mi West 5.8 mph - N/A Rain Light Rain
11:55 PM 38.1 °F 29.8 °F 37.0 °F 96% 29.79 in 2.5 mi West 13.8 mph - N/A   Overcast